Weather in Bobo Dioulasso

Burkina Faso     11°10′43″N   4°17′49″W
temp.,
°C
wind,
m/s
gust,
m/s
humid.,
%
clouds,
%
prec.,
mm/h
press.,
hPa
HPBL,
m
4 december, sat
sat400:00+25e3720100 0.0 1011108
03:00+23ene1125100 0.0 101011
06:00+22ene222795 0.0 101111
09:00+29e352082 0.0 1013410
12:00+35e3513100 0.0 10112526
15:00+36ene34952 0.0 10083065
18:00+30ne221391 0.0 100911
21:00+26n221597 0.0 101111
5 december, sun
sun500:00+24n221636 0.0 101216
03:00+22ne23175 0.0 101120
06:00+21nne221862 0.0 101215
09:00+28ne35125 0.0 1014354
12:00+35ene44821 0.0 10111996
15:00+36nne3385 0.0 10082863
18:00+29n22112 0.0 100911
21:00+26nne111273 0.0 101211
6 december, mon
mon600:00+24n33139 0.0 101226
03:00+22nne221560 0.0 101124
06:00+21ne331748 0.0 101136
09:00+28ne471215 0.0 1013406
12:00+35ene45848 0.0 10111654
15:00+36e33855 0.0 10082526
18:00+30ene221149 0.0 100911
21:00+27n221318 0.0 101111
7 december, tue
tue700:00+24n221578 0.0 101211
03:00+22nne33164 0.0 101128
06:00+20ne33170 0.0 101226
09:00+28ene47120 0.0 1013396
12:00+35ese4590 0.0 10111819
15:00+36ese3490 0.0 10082746
18:00+30sse22130 0.0 100911
21:00+27ssw11155 0.0 101111
8 december, wed
wed800:00+24n22184 0.0 101111
03:00+22nne11202 0.0 101011
06:00+21ne22223 0.0 101111
09:00+29ene35155 0.0 1012330
12:00+35e451041 0.0 10112001
15:00+36e33949 0.0 10083140
18:00+30ene221343 0.0 100911
21:00+27n11140 0.0 101111